Weather History for KSDM - November, 2012

Change the Weather History Date:

Wednesday, November 28, 2012

  Actual Average Record
Temperature  
Mean Temperature 60 °F -  
Max Temperature 66 °F 64 °F 82 °F (2011)
Min Temperature 53 °F 44 °F 41 °F (2006)
Degree Days  
Heating Degree Days 6    
Growing Degree Days 10 (Base 50)    
Moisture  
Dew Point 52 °F    
Average Humidity 78    
Maximum Humidity 88    
Minimum Humidity 54    
Precipitation  
Precipitation 0.00 in - - ()
Sea Level Pressure  
Sea Level Pressure 30.17 in    
Wind  
Wind Speed 2 mph (South)    
Max Wind Speed 9 mph    
Max Gust Speed -    
Visibility 6 miles    
Events      
Averages and records for this station are not official NWS values.
T = Trace of Precipitation, MM = Missing Value Source: NWS Daily Summary

Daily Weather History Graph

Daily Weather History Graph

Search for Another Location

Airport or City:

Trip Planner

Search our weather history database for the weather conditions in past years. The results will help you decide how hot, cold, wet, or windy it might be!

Date:

Astronomy

Nov. 28, 2012 Rise Set
Actual Time 6:29 AM PST 4:42 PM PST
Civil Twilight 6:03 AM PST 5:09 PM PST
Nautical Twilight 5:32 AM PST 5:39 PM PST
Astronomical Twilight 5:03 AM PST 6:08 PM PST
Moon 5:01 PM PST (11/28) 6:31 AM PST (11/28)
Length of Visible Light 11h 05m
Length of Day
10h 12m
Full, 100% of the Moon is Illuminated
Nov 28
Full
Dec 6
Last Quarter
Dec 13
New
Dec 19
First Quarter
Dec 28
Full

Hourly Weather History & Observations

Time (PST) Temp. Dew Point Humidity Pressure Visibility Wind Dir Wind Speed Gust Speed Precip Events Conditions
12:53 AM 57.9 °F 53.1 °F 84% 30.13 in 5.0 mi Calm Calm - N/A   Haze
1:53 AM 57.9 °F 53.1 °F 84% 30.12 in 4.0 mi SSE 4.6 mph - N/A   Haze
2:53 AM 57.0 °F 53.1 °F 87% 30.12 in 4.0 mi South 3.5 mph - N/A   Overcast
3:53 AM 57.0 °F 52.0 °F 83% 30.12 in 4.0 mi South 3.5 mph - N/A   Haze
4:53 AM 57.0 °F 52.0 °F 83% 30.12 in 4.0 mi Calm Calm - N/A   Haze
5:53 AM 57.0 °F 52.0 °F 83% 30.12 in 4.0 mi ESE 4.6 mph - N/A   Haze
6:38 AM 53.6 °F 50.0 °F 88% 30.12 in 3.0 mi Calm Calm - N/A   Scattered Clouds
6:48 AM 53.6 °F 50.0 °F 88% 30.13 in 2.5 mi Calm Calm - N/A   Partly Cloudy
6:53 AM 54.0 °F 50.0 °F 86% 30.13 in 2.5 mi Calm Calm - N/A   Clear
7:37 AM 55.4 °F 51.8 °F 88% 30.15 in 3.0 mi South 3.5 mph - N/A   Clear
7:53 AM 55.9 °F 51.1 °F 84% 30.16 in 2.5 mi SSW 3.5 mph - N/A   Haze
8:12 AM 55.4 °F 51.8 °F 88% 30.18 in 3.0 mi SSW 3.5 mph - N/A   Haze
8:19 AM 57.2 °F 51.8 °F 82% 30.19 in 2.5 mi Calm Calm - N/A   Haze
8:28 AM 57.2 °F 51.8 °F 82% 30.19 in 3.0 mi Calm Calm - N/A   Haze
8:53 AM 59.0 °F 52.0 °F 78% 30.21 in 3.0 mi Calm Calm - N/A   Haze
9:01 AM 60.8 °F 51.8 °F 72% 30.22 in 3.0 mi Calm Calm - N/A   Haze
9:22 AM 60.8 °F 51.8 °F 72% 30.21 in 4.0 mi Variable 3.5 mph - N/A   Haze
9:53 AM 62.1 °F 52.0 °F 70% 30.20 in 5.0 mi Calm Calm - N/A   Haze
10:31 AM 62.6 °F 51.8 °F 68% 30.19 in 5.0 mi Variable 3.5 mph - N/A   Haze
10:53 AM 64.0 °F 51.1 °F 63% 30.17 in 6.0 mi Calm Calm - N/A   Haze
11:53 AM 66.9 °F 50.0 °F 54% 30.14 in 8.0 mi Calm Calm - N/A   Clear
12:53 PM 64.9 °F 52.0 °F 63% 30.14 in 10.0 mi WSW 8.1 mph - N/A   Clear
1:53 PM 63.0 °F 52.0 °F 67% 30.14 in 10.0 mi WSW 9.2 mph - N/A   Clear
2:53 PM 63.0 °F 52.0 °F 67% 30.14 in 10.0 mi Calm Calm - N/A   Clear
3:53 PM 60.1 °F 51.1 °F 72% 30.16 in 10.0 mi North - - N/A   Clear
4:53 PM 59.0 °F 51.1 °F 75% 30.16 in 10.0 mi Calm Calm - N/A   Clear
5:53 PM 57.0 °F 52.0 °F 83% 30.19 in 10.0 mi West 3.5 mph - N/A   Clear
6:53 PM 57.0 °F 51.1 °F 81% 30.19 in 10.0 mi Calm Calm - N/A   Scattered Clouds
7:53 PM 55.0 °F 51.1 °F 86% 30.20 in 10.0 mi East 3.5 mph - N/A   Scattered Clouds
8:53 PM 57.0 °F 51.1 °F 81% 30.22 in 10.0 mi SSE 4.6 mph - N/A   Partly Cloudy
9:53 PM 57.9 °F 52.0 °F 81% 30.21 in 9.0 mi SSE 5.8 mph - N/A   Mostly Cloudy
10:53 PM 57.9 °F 51.1 °F 78% 30.21 in 10.0 mi SSE 4.6 mph - N/A   Overcast
11:53 PM 57.0 °F 51.1 °F 81% 30.20 in 9.0 mi ESE 3.5 mph - N/A   Overcast